Regional Weather Roundup
Issued by NWS Kansas City/Pleasant Hill, MO

Home | Current Version | Previous Version | Text Only | Print | Product List | Glossary On
Versions: 1 2 3 4 5 6 7 8 9 10 11 12 13 14 15 16 17 18 19 20 21 22 23 24 25 26 27 28 29 30 31 32 33 34 35 36 37 38 39 40 41 42 43 44 45 46 47 48 49 50
000
ASUS43 KEAX 180111
RWREAX

WEATHER ROUNDUP FOR EASTERN KANSAS AND NORTHWEST MISSOURI
NATIONAL WEATHER SERVICE KANSAS CITY/PLEASANT HILL MO
800 PM CDT FRI APR 17 2015

KSZ040-057-103>105-MOZ028-029-037-043-180200-
...KANSAS CITY METROPOLITAN AREA...

CITY           SKY/WX    TMP DP  RH WIND       PRES   REMARKS
K.C. INTL      CLOUDY    66  60  81 E3        29.96F
K.C. DOWNTOWN  MOCLDY    74  57  55 SW5       29.95S
LEES SUMMIT    CLOUDY    73  56  54 CALM      29.97R
OLATHE - IXD   MOCLDY    68  58  70 S3        29.97S
OLATHE - OJC   PTCLDY    69  59  70 CALM      29.96S
LAWRENCE       MOCLDY    67  61  81 E3        29.96S

$$

MOZ001>008-011>017-020>025-030>033-038>040-044>046-053-054-180200-
...NORTHERN AND CENTRAL MISSOURI...

CITY           SKY/WX    TMP DP  RH WIND       PRES   REMARKS
ST. JOSEPH     CLOUDY    72  56  57 SE3       29.96S
MOSBY          CLOUDY    72  59  64 CALM      29.96S
WARRENSBURG    CLOUDY    73  54  49 CALM      29.95R
WHITEMAN AFB   PTCLDY    72  58  60 E5        29.95S
CLINTON        MOCLDY    75  57  53 CALM      29.95F
SEDALIA        PTCLDY    73  56  54 E6        29.97F
WARSAW         NOT AVBL
MARSHALL       MOCLDY    75  59  57 E3        29.97F
CHILLICOTHE      N/A     73  59  61 CALM      29.98S
MOBERLY        MOCLDY    72  54  53 E7        29.99S
KIRKSVILLE     PTCLDY    69  57  65 SE6       29.99S

$$

MOZ041-047>049-056>058-063>065-088>090-097-180200-
...EASTERN AND SOUTHERN MISSOURI...

CITY           SKY/WX    TMP DP  RH WIND       PRES   REMARKS
ST. LOUIS INTL PTCLDY    72  54  53 E7        30.00R
SPIRIT OF STL  PTCLDY    73  55  53 E5        29.98R
COLUMBIA       CLOUDY    73  55  53 E6        29.97S
JEFFERSON CITY CLOUDY    77  54  44 NE9       29.95S
MEXICO         PTCLDY    73  61  64 E6        29.99R
HANNIBAL       CLEAR     73  48  40 CALM      30.00S
ROLLA          CLOUDY    71  56  58 S5        29.97R
LEBANON        PTCLDY    73  52  46 SE3       29.97F
OSAGE BEACH    MOCLDY    75  54  46 NE5       29.96S
SPRINGFIELD    PTCLDY    69  56  62 SE6       29.95F
BRANSON        CLOUDY    68  61  77 E6        29.97F
NEVADA         PTCLDY    68  61  77 E5        29.95F
JOPLIN         MOCLDY    71  60  68 SE3       29.94S
WEST PLAINS    PTCLDY    70  61  73 S5        30.00S

$$

IAZ060-094-KSZ022-034>040-054-083-096-NEZ052-066-093-180200-
...KANSAS...SOUTHEAST NEBRASKA AND IOWA...

CITY           SKY/WX    TMP DP  RH WIND       PRES   REMARKS
TOPEKA         CLOUDY    68  58  70 SE6       29.96S
MANHATTAN      CLOUDY    70  58  65 SE6       29.93F
EMPORIA        CLOUDY    67  58  72 E7        29.94F
CHANUTE        MOCLDY    70  61  73 CALM      29.94F
WICHITA        CLOUDY    68  57  68 CALM      29.92F
OMAHA          CLOUDY    74  52  46 E6        29.98R
LINCOLN        CLOUDY    69  55  60 SE5       29.99R
FALLS CITY     CLOUDY    70  57  63 CALM      29.96S
LAMONI         CLOUDY    74  54  49 CALM      29.99R
DES MOINES     CLOUDY    75  50  41 S5        29.99R

$$



USA.gov is the U.S. government's official web portal to all federal, state and local government web resources and services.